This is the latest recevied weather packets stored in our database for station/object KB9ZGZ. If no packets are shown the sender has not sent any weather packets the latest 10 day(s).
| Time | Temp. | Humidity | Pressure | Rain* | Wind** | Luminosity | Snow |
|---|---|---|---|---|---|---|---|
| 1777621516 | 8.33° C | 82% | 1010.9 hPa | 0.25 mm | - | - | - |
| 1777620610 | 8.89° C | 83% | 1010.9 hPa | 0.25 mm | - | - | - |
| 1777618812 | 9.44° C | 87% | 1010.9 hPa | 0.25 mm | - | - | - |
| 1777617908 | 9.44° C | 88% | 1010.9 hPa | 0.25 mm | - | - | - |
| 1777617011 | 9.44° C | 88% | 1010.9 hPa | 0.25 mm | - | - | - |
| 1777615242 | 10.56° C | 87% | 1010.9 hPa | 0.25 mm | - | - | - |
| 1777614342 | 10.56° C | 86% | 1010.9 hPa | 0.25 mm | - | - | - |
| 1777613437 | 10.56° C | 86% | 1010.9 hPa | 0.25 mm | - | - | - |
| 1777612537 | 11.11° C | 86% | 1010.9 hPa | 0.25 mm | - | - | - |
| 1777611637 | 11.11° C | 87% | 1010.8 hPa | 0.25 mm | - | - | - |
| 1777610737 | 11.11° C | 87% | 1010.8 hPa | 0.25 mm | - | - | - |
| 1777609835 | 11.11° C | 88% | 1010.7 hPa | 0.25 mm | - | - | - |
| 1777608937 | 11.11° C | 88% | 1010.5 hPa | 0.25 mm | - | - | - |
| 1777608042 | 11.11° C | 89% | 1010.7 hPa | 0.25 mm | - | - | - |
| 1777607134 | 11.11° C | 90% | 1010.8 hPa | 0.25 mm | - | - | - |
| 1777606231 | 11.11° C | 90% | 1010.7 hPa | 0.25 mm | - | - | - |
| 1777605331 | 11.11° C | 90% | 1010.6 hPa | 0.25 mm | - | - | - |
| 1777604430 | 11.11° C | 89% | 1010.7 hPa | 0.25 mm | - | - | - |
| 1777603533 | 11.11° C | 89% | 1010.5 hPa | 0.25 mm | - | - | - |
| 1777602622 | 11.11° C | 88% | 1010.4 hPa | 0.25 mm | - | - | - |
| 1777601724 | 11.11° C | 87% | 1010.4 hPa | 0.25 mm | - | - | - |
| 1777600819 | 11.67° C | 85% | 1010.5 hPa | 0.25 mm | - | - | - |
| 1777599929 | 11.67° C | 83% | 1010.6 hPa | 0.25 mm | - | - | - |
| 1777599043 | 12.22° C | 80% | 1010.4 hPa | 0.25 mm | - | - | - |
| 1777598143 | 12.78° C | 77% | 1010.1 hPa | 0.25 mm | - | - | - |
* Rain since midnight (hover to see other rain measurements)
** Current wind speed in m/s (hover to see current wind gust speed)